sat.trackr.live / text

‹ back to catalog

STARLINK-5626

NORAD 55435 · 2023-014AW

PAYLOAD ACTIVE UNKNOWN

§ Identity

Operator
Country
US
Launch date
2023-01-31
Launch site
AFWTR
Launch vehicle
Mass (kg)
RCS (m²)

Purposes: comms

External: N2YO · Heavens-Above · Gunter

§ Orbital elements

Epoch: 2026-05-25T02:11:38.936832Z

Period
96.11 min
Inclination
69.9994°
Eccentricity
0.0002779
Mean motion
14.98332085 rev/d
Perigee alt
570.1 km
Apogee alt
574.0 km
Semi-major
6,950.2 km
B*
8.1355e-5
RAAN
271.7873°
Arg perigee
277.8712°
Mean anomaly
82.2132°
Rev number
18,251

§ Raw data

STARLINK-56261 55435U 23014AW  26145.09142288  .00000878  00000+0  81355-4 0  99922 55435  69.9994 271.7873 0002779 277.8712  82.2132 14.98332085182512

JSON: /api/v1/satellites/55435 · /tle

For live sub-satellite position, see the globe view (requires WebGL).

§ Visibility from observer

Set your observer location to see the next 7 days of passes ≥ 10°. The values pass through the URL so the page stays shareable.

No JS? Fill the form by hand. The geolocation button needs JavaScript.